St. Petersburg, FL

1:02 AM EDT on June 25, 2017 (GMT -0400)
Whitted

Weather History for KSPG - January, 2012

Change the Weather History Date:

Tuesday, January 31, 2012

  Actual Average Record
Temperature  
Mean Temperature 66 °F -  
Max Temperature 72 °F 70 °F 84 °F (1975)
Min Temperature 60 °F 54 °F 29 °F (1966)
Cooling Degree Days 1    
Growing Degree Days 16 (Base 50)    
Moisture  
Dew Point 57 °F    
Average Humidity 75    
Maximum Humidity 83    
Minimum Humidity 59    
Precipitation  
Precipitation 0.00 in - - ()
Sea Level Pressure  
Sea Level Pressure 30.29 in    
Wind  
Wind Speed 12 mph (East)    
Max Wind Speed 17 mph    
Max Gust Speed -    
Visibility 10 miles    
Events      
Averages and records for this station are not official NWS values.
T = Trace of Precipitation, MM = Missing Value Source: NWS Daily Summary

Daily Weather History Graph

Daily Weather History Graph

Search for Another Location

Airport or City:

Trip Planner

Search our weather history database for the weather conditions in past years. The results will help you decide how hot, cold, wet, or windy it might be!

Date:

Astronomy

Jan. 31, 2012 Rise Set
Actual Time 7:18 AM EST 6:10 PM EST
Civil Twilight 6:53 AM EST 6:34 PM EST
Nautical Twilight 6:25 AM EST 7:02 PM EST
Astronomical Twilight 5:57 AM EST 7:30 PM EST
Moon 12:03 PM EST (1/31) 1:02 AM EST (1/31)
Length of Visible Light 11h 41m
Length of Day
10h 52m
First Quarter, 55% of the Moon is Illuminated
Jan 31
First Quarter
Feb 7
Full
Feb 14
Last Quarter
Feb 21
New
Feb 29
First Quarter

Hourly Weather History & Observations

Time (EST) Temp. Dew Point Humidity Pressure Visibility Wind Dir Wind Speed Gust Speed Precip Events Conditions
12:53 AM 61.0 °F 54.0 °F 78% 30.32 in 10.0 mi ENE 11.5 mph - N/A   Clear
1:53 AM 60.1 °F 54.0 °F 80% 30.31 in 10.0 mi ENE 12.7 mph - N/A   Clear
2:53 AM 60.1 °F 54.0 °F 80% 30.31 in 10.0 mi ENE 12.7 mph - N/A   Clear
3:53 AM 60.1 °F 54.0 °F 80% 30.30 in 10.0 mi ENE 11.5 mph - N/A   Clear
4:53 AM 60.1 °F 54.0 °F 80% 30.31 in 10.0 mi ENE 15.0 mph - N/A   Clear
5:53 AM 60.1 °F 55.0 °F 83% 30.31 in 10.0 mi East 12.7 mph - N/A   Clear
6:53 AM 61.0 °F 55.0 °F 81% 30.32 in 10.0 mi East 17.3 mph - N/A   Clear
7:53 AM 61.0 °F 55.0 °F 81% 30.34 in 10.0 mi East 15.0 mph - N/A   Clear
8:53 AM 63.0 °F 55.9 °F 78% 30.35 in 10.0 mi East 16.1 mph - N/A   Clear
10:53 AM 66.9 °F 59.0 °F 76% 30.34 in 10.0 mi East 10.4 mph - N/A   Clear
11:53 AM 71.1 °F 57.9 °F 63% 30.31 in 10.0 mi ESE 10.4 mph - N/A   Clear
12:53 PM 70.0 °F 61.0 °F 73% 30.28 in 10.0 mi ENE 6.9 mph - N/A   Clear
1:53 PM 71.1 °F 60.1 °F 68% 30.25 in 10.0 mi ENE 8.1 mph - N/A   Clear
2:53 PM 71.1 °F 60.1 °F 68% 30.23 in 10.0 mi East 6.9 mph - N/A   Clear
3:53 PM 72.0 °F 57.0 °F 59% 30.23 in 10.0 mi ENE 6.9 mph - N/A   Clear
4:53 PM 71.1 °F 60.1 °F 68% 30.23 in 10.0 mi ENE 8.1 mph - N/A   Clear
5:53 PM 69.1 °F 61.0 °F 75% 30.23 in 10.0 mi East 5.8 mph - N/A   Clear
6:53 PM 69.1 °F 61.0 °F 75% 30.25 in 10.0 mi ENE 6.9 mph - N/A   Clear
7:53 PM 68.0 °F 60.1 °F 76% 30.26 in 10.0 mi East 10.4 mph - N/A   Clear
9:53 PM 66.0 °F 57.9 °F 75% 30.27 in 10.0 mi ESE 15.0 mph - N/A   Clear
10:53 PM 64.9 °F 57.9 °F 78% 30.27 in 10.0 mi ESE 12.7 mph - N/A   Clear
11:53 PM 64.0 °F 57.9 °F 80% 30.27 in 10.0 mi ESE 10.4 mph - N/A   Clear